Temp
44 45 53 52 52 55 54 55 48 53 54 61 64 63 65 68 68 68 69 69 68 65 62 61 59 59 59 59 60 61 63 61 60 59 60 59 58 56 56 55 55 55 55 54
37 44 46 48 53 54 56 58 57 58 56 66 70 68 66 69 69 68 68 70 70 67 66 61 60 59 59 59 60 62 62 60 60 60 59 57 57 54 54 54 54 53 52 52
31 41 40 34 43 52 55 59 58 51 60 67 64 66 69 70 67 68 68 69 68 68 68 65 61 61 59 60 62 62 61 60 59 58 57 57 56 54 52 52 51 50 50 51
31 36 25 43 53 54 55 58 60 63 64 66 68 70 68 69 73 71 70 70 68 69 64 66 63 62 61 62 61 59 59 58 57 56 55 53 51 50 49 49 49 49 50 50
28 28 38 42 49 50 52 52 61 60 65 68 69 64 62 73 73 67 67 64 64 62 60 60 61 60 60 60 58 57 57 56 55 52 50 50 48 47 49 50 49 48 48 48
30 25 24 41 51 58 61 44 62 63 61 61 62 52 63 69 68 67 66 64 61 60 60 58 57 59 58 57 55 53 52 51 52 51 51 46 48 46 46 48 48 46 45 45
31 27 33 48 52 55 35 43 62 63 64 63 58 60 65 66 64 63 60 60 59 59 58 57 57 57 53 51 48 47 49 48 48 49 47 46 45 45 44 44 44 42 42 41
32 28 25 54 53 42 51 59 62 62 60 61 62 58 59 59 58 58 57 57 58 55 54 53 54 52 50 46 47 48 48 46 46 45 45 45 43 43 42 41 39 36 36 35
39 36 48 55 54 59 61 56 60 62 65 61 62 57 57 55 54 55 56 56 56 54 51 51 52 51 46 44 47 46 46 44 43 44 44 44 41 40 39 41 38 38 35 35
41 48 51 52 54 58 62 59 62 62 62 64 54 51 52 54 54 54 54 51 52 50 48 46 48 49 46 47 47 46 44 43 42 41 41 42 42 41 39 37 36 35 34 33
43 46 51 54 53 57 62 63 63 61 62 61 56 54 56 54 53 54 52 50 50 46 45 43 45 47 48 48 48 45 44 44 42 41 41 40 40 40 39 40 38 34 32 33
38 49 46 49 56 61 61 60 63 59 57 58 56 54 55 54 55 54 51 50 47 44 44 44 45 47 48 49 49 47 44 42 40 39 39 39 38 35 37 39 38 37 37 35
48 52 52 51 55 57 57 58 61 58 57 55 56 56 54 53 52 49 50 48 45 44 45 46 46 47 49 47 45 42 41 40 36 35 35 34 33 32 32 35 36 36 36 36
47 48 48 50 48 54 56 55 56 58 58 57 57 57 52 52 52 49 47 46 46 46 46 47 46 44 44 44 43 40 39 35 37 36 35 34 33 31 29 30 28 29 34 34
44 47 48 50 50 52 53 52 52 53 53 53 53 51 52 51 48 46 47 48 48 47 47 45 43 42 44 44 42 39 38 34 34 33 33 32 32 31 30 29 28 28 28 29
43 44 46 45 46 49 49 49 50 51 51 50 49 49 50 50 47 47 47 48 45 42 43 39 39 41 41 42 39 37 36 34 34 33 32 31 30 29 28 27 28 30 32 32
38 38 40 41 42 44 46 50 48 49 49 48 47 47 46 45 44 44 44 44 42 41 39 39 37 37 37 39 38 36 34 33 32 32 29 28 28 28 30 32 29 28 29 32
44 43 43 43 41 41 41 42 43 43 42 45 42 41 39 40 39 39 39 39 37 35 38 38 37 36 37 38 37 35 34 33 32 31 31 29 30 32 32 31 32 32 32 33
44 43 42 42 43 42 41 40 39 38 37 37 37 35 36 36 36 35 35 35 35 35 34 35 33 35 35 35 35 33 32 32 30 29 29 28 30 31 30 30 31 31 32 32
38 38 38 36 35 35 34 34 36 34 34 37 35 35 34 34 35 35 36 36 39 39 36 35 35 35 35 34 33 32 31 29 29 27 27 30 30 29 30 30 31 31 32 32
33 32 31 31 31 30 31 33 32 32 32 33 35 34 34 33 34 34 33 32 33 35 35 33 35 33 34 32 31 29 28 26 26 27 29 29 29 30 30 31 31 32 32 32
33 32 31 31 32 31 31 32 33 32 32 32 33 33 33 32 32 30 32 35 34 33 33 33 33 31 31 29 30 28 27 27 26 27 29 29 29 30 30 30 31 31 32 32
34 34 34 32 33 34 33 31 31 32 32 32 32 32 33 33 34 32 30 33 34 35 35 34 30 29 26 27 27 26 28 23 23 23 25 29 30 30 30 30 31 31 31 31
33 33 33 35 37 35 34 34 34 32 31 33 32 34 34 30 28 33 33 32 31 32 31 29 29 28 26 26 26 30 30 30 25 17 20 24 31 30 30 30 30 31 31 31
32 33 33 33 32 32 34 36 34 34 34 33 32 32 33 33 30 31 32 31 28 30 29 26 27 24 26 29 31 30 30 29 30 30 29 20 20 29 29 29 30 30 30 31
31 31 33 32 31 31 31 32 32 33 34 32 32 31 33 33 34 31 31 30 30 28 31 25 25 26 29 20 30 31 31 30 29 30 28 27 19 18 19 26 29 30 30 30
28 26 28 28 29 29 29 29 29 30 30 30 32 30 33 32 33 32 28 27 28 29 30 29 26 26 24 23 31 31 30 29 30 30 28 28 28 27 18 20 28 30 30 29
MSLP
1003.86 1002.95 1001.42 1000.12 999.43 998.62 998.05 997.81 997.75 997.83 997.29 997.10 997.08 996.83 996.57 996.44 996.65 997.22 997.39 998.04 998.91 1000.03 1001.07 1001.91 1002.97 1003.93 1004.83 1005.27 1005.69 1006.35 1007.03 1007.54 1007.89 1008.13 1008.45 1008.87 1009.42 1010.00 1010.42 1010.98 1011.55 1011.92 1012.51 1013.16
1005.02 1003.70 1002.41 1000.60 999.06 998.46 997.35 997.01 996.50 996.25 995.86 996.04 995.89 996.28 996.33 996.39 996.78 996.77 996.99 997.36 997.93 998.78 999.94 1000.97 1001.88 1002.83 1003.76 1004.56 1005.07 1005.79 1006.57 1007.41 1007.97 1008.55 1008.88 1009.30 1009.78 1010.40 1010.92 1011.59 1012.07 1012.48 1012.95 1013.44
1004.12 1003.92 1003.20 1000.65 999.39 997.60 996.62 995.94 995.76 994.94 994.40 995.35 995.10 995.31 995.27 995.67 996.21 996.60 996.75 997.02 997.53 998.00 998.65 999.54 1000.62 1001.53 1002.59 1003.56 1004.38 1005.19 1006.22 1007.19 1007.85 1008.41 1009.04 1009.53 1010.18 1010.79 1011.34 1011.83 1012.34 1012.98 1013.42 1013.77
1004.79 1004.98 1002.66 999.92 998.61 998.34 996.28 995.31 995.15 994.42 993.84 993.65 993.53 994.27 994.96 995.11 995.14 995.65 996.22 996.47 996.67 997.19 998.02 998.80 999.83 1000.78 1001.81 1002.83 1003.85 1004.67 1005.83 1006.99 1007.74 1008.54 1009.37 1010.00 1010.55 1011.23 1011.80 1012.17 1012.71 1013.20 1013.61 1014.00
1004.72 1002.99 1001.11 999.97 999.03 997.71 996.11 994.14 993.78 994.10 993.37 992.92 993.11 993.87 994.23 993.72 994.03 994.78 995.20 995.48 995.92 996.41 997.34 998.42 999.24 1000.15 1001.17 1002.56 1003.60 1004.46 1005.64 1006.83 1007.84 1008.77 1009.85 1010.40 1011.14 1011.64 1012.11 1012.56 1013.04 1013.45 1013.70 1014.11
1003.77 1002.81 1000.88 998.79 997.95 996.87 995.45 992.92 993.16 993.55 993.59 993.15 993.03 993.87 992.90 992.99 993.87 994.19 994.44 994.64 995.59 996.55 997.58 998.46 999.63 1000.15 1001.32 1002.63 1003.67 1004.73 1005.70 1006.58 1007.66 1008.93 1009.96 1010.68 1011.46 1012.00 1012.45 1012.85 1013.42 1013.76 1014.15 1014.49
1002.22 1001.46 999.91 998.59 997.95 997.59 996.43 992.87 991.86 991.76 991.79 992.11 992.71 993.03 992.77 992.99 993.39 993.56 994.15 994.77 995.55 996.47 997.46 998.54 999.55 1000.36 1001.78 1003.01 1004.18 1005.15 1006.14 1007.21 1008.29 1009.13 1010.03 1010.87 1011.81 1012.40 1012.86 1013.39 1013.96 1014.22 1014.32 1015.09
1000.43 999.56 998.06 996.20 995.52 996.01 993.59 992.51 991.40 991.47 991.77 991.80 992.21 993.04 993.07 993.69 993.70 994.06 994.68 995.48 995.94 997.10 998.28 999.17 999.92 1000.83 1002.33 1003.72 1004.69 1005.56 1006.54 1007.69 1008.76 1009.78 1010.89 1011.59 1012.38 1013.01 1013.57 1013.65 1013.81 1014.24 1014.58 1014.99
997.78 996.47 995.25 993.78 994.01 992.69 992.78 992.01 991.26 991.28 990.97 991.13 991.28 992.34 992.38 993.13 994.05 994.71 995.23 996.02 996.64 997.50 998.93 1000.03 1000.73 1001.42 1002.79 1004.35 1005.02 1006.01 1007.15 1008.36 1009.24 1010.28 1011.33 1012.11 1012.65 1013.16 1013.71 1013.43 1013.72 1013.78 1014.24 1014.49
996.89 995.38 993.86 992.93 993.32 992.49 992.18 990.58 990.09 989.75 989.21 989.65 990.82 991.63 992.51 993.17 994.06 995.03 995.98 996.74 997.46 998.65 999.89 1000.87 1001.66 1002.38 1003.20 1004.42 1005.39 1006.47 1007.67 1008.79 1009.81 1010.76 1011.57 1012.07 1012.44 1013.04 1013.12 1013.23 1013.43 1013.56 1013.90 1014.18
994.68 994.05 992.94 991.62 991.60 991.06 990.67 989.32 988.76 988.51 989.24 989.85 990.73 991.59 992.06 993.43 994.47 995.27 996.18 997.46 998.37 999.39 1000.30 1001.47 1002.28 1003.29 1004.14 1004.92 1005.74 1006.91 1008.03 1009.14 1010.15 1010.88 1011.52 1011.96 1012.28 1012.55 1012.76 1012.68 1012.77 1012.97 1013.29 1013.75
992.77 991.72 992.64 991.87 990.86 989.21 989.29 988.29 988.88 988.81 989.84 989.76 990.65 992.18 992.46 993.43 994.53 995.39 996.60 997.76 998.95 1000.15 1001.17 1002.15 1003.07 1003.93 1004.76 1005.48 1006.18 1007.10 1008.31 1009.38 1010.24 1010.98 1011.48 1011.88 1012.23 1012.35 1012.15 1012.31 1012.39 1012.59 1012.85 1013.26
990.71 991.56 991.39 989.60 991.08 988.28 987.56 987.77 989.21 989.48 989.87 990.56 990.80 991.45 992.39 993.54 994.40 995.49 996.76 998.06 999.37 1000.50 1001.76 1002.68 1003.54 1004.42 1005.29 1005.92 1006.57 1007.44 1008.54 1009.40 1010.10 1010.83 1011.46 1011.98 1012.14 1012.32 1012.60 1012.32 1012.32 1012.39 1012.61 1012.87
991.81 990.80 990.69 990.99 990.90 989.15 988.33 988.68 988.74 989.90 990.94 990.60 991.02 991.75 992.64 993.79 995.00 996.21 997.39 998.64 999.90 1001.26 1002.43 1003.02 1003.94 1005.03 1005.70 1006.41 1007.23 1008.21 1009.18 1010.02 1010.54 1011.10 1011.55 1011.70 1012.10 1012.34 1012.36 1012.76 1012.87 1012.68 1012.60 1012.76
992.84 991.64 990.82 990.43 989.90 989.62 989.37 990.08 990.23 991.20 992.15 991.80 991.70 992.35 993.33 994.71 995.90 997.36 998.41 999.27 1000.52 1001.87 1003.03 1003.84 1004.90 1005.97 1006.31 1007.02 1008.03 1008.88 1009.64 1010.19 1010.75 1011.17 1011.46 1011.68 1011.89 1012.09 1012.21 1012.31 1012.52 1012.83 1013.10 1012.70
992.06 991.55 990.86 990.72 990.94 991.20 991.41 991.57 991.51 991.71 992.42 992.34 993.07 993.76 994.56 995.58 996.71 997.99 999.20 1000.02 1001.04 1002.62 1003.72 1004.65 1005.75 1006.58 1006.96 1007.58 1008.46 1009.23 1009.91 1010.37 1010.77 1011.13 1011.55 1011.88 1011.80 1011.83 1012.17 1012.52 1012.74 1012.81 1012.47 1012.01
992.90 992.92 992.70 992.57 992.33 992.25 992.73 992.77 992.65 992.75 993.02 993.81 994.63 995.08 995.74 997.11 998.34 999.28 1000.12 1001.14 1002.05 1003.30 1004.52 1005.48 1006.37 1006.96 1007.43 1007.89 1008.44 1009.14 1009.68 1010.20 1010.57 1010.89 1011.25 1011.59 1011.78 1012.28 1012.50 1012.49 1012.35 1012.02 1011.67 1011.24
994.56 994.49 994.41 994.23 994.28 994.33 994.79 995.27 994.96 994.73 995.32 995.53 995.99 996.51 997.36 998.39 999.46 1000.55 1001.42 1002.34 1003.51 1004.56 1005.18 1005.67 1006.11 1006.66 1007.19 1007.78 1008.40 1009.08 1009.49 1009.92 1010.37 1010.81 1011.20 1011.59 1011.88 1011.99 1011.98 1011.81 1011.58 1011.25 1010.88 1010.52
996.08 996.07 995.86 995.65 995.69 995.93 996.35 996.68 996.79 996.69 997.15 997.46 997.98 998.63 999.16 999.96 1000.80 1001.75 1002.56 1003.53 1004.35 1005.13 1005.61 1005.86 1006.25 1006.68 1007.24 1007.77 1008.20 1008.67 1009.31 1009.83 1010.34 1010.85 1011.21 1011.33 1011.39 1011.36 1011.26 1011.10 1010.85 1010.54 1010.20 1009.80
997.82 997.86 997.53 997.30 997.33 997.22 997.53 997.77 997.49 998.07 998.63 998.99 999.55 1000.18 1000.80 1001.28 1001.71 1002.39 1003.00 1003.43 1003.44 1003.73 1004.82 1005.42 1006.02 1006.70 1007.21 1007.75 1008.18 1008.72 1009.28 1009.71 1010.15 1010.57 1010.78 1010.88 1010.91 1010.84 1010.73 1010.50 1010.26 1009.94 1009.57 1009.21
999.01 999.14 998.88 998.67 998.86 998.87 998.79 998.87 999.00 998.97 999.24 999.48 1000.00 1000.80 1001.32 1001.89 1002.29 1002.78 1003.52 1003.93 1004.16 1004.59 1005.15 1005.72 1006.38 1007.05 1007.36 1007.63 1007.99 1008.65 1009.11 1009.52 1009.81 1010.16 1010.32 1010.45 1010.49 1010.34 1010.06 1009.87 1009.54 1009.25 1008.92 1008.54
999.42 999.47 999.29 998.83 998.32 998.73 999.02 999.36 999.64 999.91 1000.27 1000.75 1001.22 1001.52 1001.80 1002.33 1002.65 1002.96 1003.15 1003.12 1003.78 1004.46 1005.34 1005.88 1006.16 1006.74 1007.24 1007.63 1008.13 1008.60 1009.04 1009.39 1009.65 1009.86 1009.94 1010.01 1010.02 1009.95 1009.60 1009.32 1009.08 1008.77 1008.29 1007.89
999.62 999.42 999.25 999.12 999.26 999.74 1000.05 1000.46 1000.98 1001.24 1001.37 1001.61 1001.80 1002.04 1002.29 1002.68 1002.91 1003.28 1003.41 1003.69 1003.91 1004.04 1004.75 1005.61 1006.00 1006.59 1007.08 1007.58 1008.03 1008.28 1008.68 1009.03 1009.21 1009.44 1009.53 1009.59 1009.58 1009.30 1009.04 1008.80 1008.58 1008.17 1007.76 1007.33
1000.62 1000.53 1000.46 1000.17 1000.27 1000.72 1001.01 1001.32 1001.53 1001.62 1001.74 1002.13 1002.37 1002.39 1002.53 1002.68 1003.10 1003.16 1003.24 1003.54 1004.15 1004.50 1005.29 1005.71 1006.10 1006.65 1007.01 1007.64 1007.99 1008.24 1008.66 1009.00 1008.95 1009.00 1009.01 1009.10 1009.13 1009.04 1008.56 1008.25 1008.05 1007.64 1007.31 1006.90
1001.91 1001.95 1002.05 1002.05 1002.18 1002.41 1002.21 1002.05 1001.87 1001.83 1001.95 1002.28 1002.35 1002.44 1002.67 1002.79 1002.91 1002.97 1003.30 1003.73 1004.08 1004.61 1005.16 1005.56 1006.16 1006.75 1007.15 1007.50 1007.81 1008.25 1008.49 1008.21 1008.60 1008.72 1008.60 1008.80 1008.90 1008.62 1008.21 1007.88 1007.61 1007.29 1006.85 1006.44
1002.96 1003.17 1003.30 1003.52 1003.66 1003.59 1003.35 1003.01 1002.99 1002.94 1002.69 1002.59 1002.53 1002.56 1002.77 1002.64 1002.81 1002.96 1003.37 1003.71 1004.06 1004.55 1005.31 1005.89 1006.45 1006.62 1007.03 1007.50 1007.46 1007.85 1008.11 1008.03 1008.16 1008.18 1008.22 1008.24 1008.24 1008.26 1008.04 1007.62 1007.24 1006.81 1006.45 1006.11
1003.64 1003.83 1004.04 1004.26 1004.39 1004.40 1004.34 1004.20 1004.00 1003.94 1003.81 1003.66 1003.27 1002.86 1002.96 1003.09 1003.45 1003.51 1003.66 1004.00 1004.28 1004.67 1005.14 1005.55 1006.05 1006.40 1006.86 1006.95 1007.23 1007.51 1007.57 1007.66 1007.64 1007.66 1007.82 1007.87 1007.85 1007.78 1007.53 1007.20 1006.83 1006.45 1006.17 1005.87
Wind_Speed
17 24 24 28 23 22 24 28 27 24 24 21 16 11 10 7 6 8 10 11 14 15 15 14 14 13 12 11 11 10 8 6 5 6 8 8 8 6 7 7 7 8 8 7
10 20 23 23 31 30 25 26 30 26 24 19 16 12 6 6 8 9 8 12 13 13 17 17 17 15 13 12 12 11 10 8 8 8 8 8 9 8 8 7 7 7 6 7
13 11 23 19 30 33 33 22 22 27 27 15 15 15 19 15 8 9 8 11 11 13 19 17 18 17 16 15 12 12 12 11 11 11 10 9 8 7 7 7 7 6 6 6
9 10 19 10 22 29 33 31 19 22 22 22 23 19 11 11 20 16 14 12 12 12 9 14 17 17 15 15 13 14 14 12 11 11 9 7 7 7 6 6 7 6 6 6
9 13 17 19 16 28 31 36 32 25 24 27 20 8 9 20 16 11 11 10 10 9 11 12 17 16 18 15 13 14 14 12 10 10 9 8 7 7 5 5 5 4 4 5
12 14 16 9 15 21 24 26 25 25 22 20 12 9 20 13 7 10 11 10 10 12 12 14 13 16 17 14 12 12 12 13 14 12 9 8 8 6 4 5 5 4 6 5
19 16 12 21 27 25 28 12 26 27 28 25 17 10 12 10 9 9 8 10 11 15 16 15 15 16 14 13 12 12 14 12 10 10 10 9 6 4 5 5 4 2 3 3
13 14 22 16 22 22 28 20 20 15 14 21 16 10 7 5 7 9 12 12 14 14 13 11 13 15 15 14 13 14 14 14 12 11 7 6 6 3 1 3 5 5 4 5
13 10 11 17 20 22 23 10 17 21 24 17 22 13 12 11 10 9 12 11 11 15 14 10 11 14 17 13 15 15 14 12 10 9 6 5 4 4 5 4 4 4 4 4
23 26 26 22 17 18 26 14 13 8 11 19 9 12 9 11 13 13 12 13 14 16 14 13 11 13 15 15 14 14 12 11 8 6 5 5 4 4 4 4 4 3 3 3
21 27 23 24 16 19 27 7 1 2 6 7 10 9 14 14 13 13 14 12 13 14 13 12 13 14 13 13 13 12 11 9 8 5 5 5 5 5 5 4 5 4 3 3
21 19 11 17 23 29 20 6 6 3 2 4 10 8 11 14 13 15 16 14 14 14 14 12 12 12 12 12 12 12 10 7 5 4 4 4 4 2 3 6 5 6 7 5
27 13 19 12 16 9 6 12 6 6 7 6 7 10 8 13 11 14 15 16 16 15 13 12 13 13 10 8 8 10 9 7 4 4 4 3 2 3 2 5 5 1 3 5
8 4 10 16 9 3 9 10 10 12 5 6 7 8 9 13 15 16 16 16 16 15 13 14 13 12 11 10 10 8 7 6 4 3 3 3 2 2 2 2 1 2 4 4
10 7 6 6 13 11 10 6 10 8 5 6 7 10 15 16 16 16 16 16 16 16 14 13 14 11 10 10 8 7 5 3 3 3 3 3 3 2 1 2 2 2 3 4
5 9 12 14 13 12 9 9 7 7 5 7 10 12 12 16 18 17 16 16 17 13 15 14 13 9 7 7 7 5 5 6 5 3 2 1 2 2 2 1 2 5 5 5
13 14 13 15 14 14 14 7 6 7 7 8 12 15 18 18 17 16 14 14 15 14 11 10 8 7 7 8 9 5 4 4 6 3 3 2 2 1 3 4 4 5 5 5
12 13 13 13 12 12 13 12 11 12 9 11 11 15 15 15 16 15 15 14 10 7 8 10 11 9 7 7 6 4 5 5 4 4 3 3 3 3 3 4 5 5 6 6
13 11 11 12 9 9 9 10 9 10 11 10 11 10 11 12 11 10 11 11 10 10 7 8 11 10 8 8 7 5 4 4 4 3 3 3 2 3 3 4 5 6 7 7
11 8 8 9 10 9 8 6 7 9 6 12 9 8 9 8 11 13 14 15 14 8 13 12 11 9 7 7 7 4 5 5 5 3 3 2 3 3 3 5 7 7 7 7
8 6 7 7 6 5 6 5 6 8 6 6 9 8 9 8 8 9 7 4 2 7 7 10 7 5 6 7 6 4 5 5 4 3 3 3 3 4 4 5 6 6 6 6
5 7 6 6 8 8 8 8 8 7 6 6 6 5 8 6 5 2 1 5 7 11 8 7 6 6 6 8 4 5 5 4 3 2 3 2 3 4 5 5 5 5 6 6
6 6 6 7 7 7 7 7 6 7 6 4 4 3 4 3 4 5 5 1 5 11 9 7 7 10 10 5 5 5 4 4 4 4 3 3 3 4 4 5 5 5 6 6
11 11 11 9 7 7 7 5 5 5 5 4 4 3 4 3 1 3 3 9 9 9 5 5 8 9 7 4 4 4 5 5 4 3 3 5 4 4 3 3 5 5 6 7
8 9 12 12 11 8 9 6 4 5 5 4 3 1 4 2 4 3 5 4 7 7 5 7 9 9 5 4 5 5 5 5 4 5 5 4 4 4 3 3 4 5 6 6
9 6 7 10 7 7 7 7 7 7 6 2 2 3 2 3 3 4 5 6 7 8 6 5 4 5 5 4 4 6 6 5 5 5 5 4 3 3 3 4 5 5 6 6
7 6 4 5 6 7 6 7 6 7 7 7 4 1 2 1 3 2 5 4 3 5 6 5 5 5 4 4 6 7 6 6 6 5 4 3 3 4 3 4 4 5 5 5
Wind_Direction
257 276 234 246 251 243 231 211 219 229 240 228 225 229 233 230 176 164 157 161 162 163 172 166 159 159 168 165 163 166 173 160 154 129 126 116 112 109 103 99 106 110 108 105
287 261 272 256 240 249 248 225 219 229 233 230 231 232 232 230 238 196 195 184 180 165 165 168 166 169 166 166 166 167 154 146 134 130 127 119 115 109 109 112 113 112 122 128
274 280 254 256 244 245 242 239 225 223 232 231 231 225 233 242 220 234 219 196 191 178 177 169 172 166 168 168 161 153 145 143 138 131 127 121 128 127 128 127 120 127 128 130
273 263 254 274 237 252 248 244 251 237 228 231 238 239 243 226 239 240 230 228 197 187 167 166 160 165 156 158 150 139 143 145 136 131 137 138 121 122 124 127 136 139 140 138
255 267 290 295 275 237 239 239 239 244 243 234 240 225 230 226 218 202 204 198 189 168 154 153 153 152 149 151 143 138 143 139 138 133 130 120 121 118 104 105 104 105 111 104
235 247 253 244 276 265 253 236 240 236 244 252 251 236 247 246 212 228 210 184 164 144 137 137 144 143 144 146 142 138 137 132 128 126 130 116 120 119 106 99 96 74 62 69
234 239 254 250 251 273 274 236 232 231 232 240 240 228 265 231 200 171 154 145 130 141 151 149 144 141 137 136 133 129 120 109 102 107 114 113 105 84 85 86 75 123 145 226
232 232 235 222 249 225 251 252 246 251 247 258 247 184 166 172 147 140 137 135 135 130 134 132 136 129 131 126 128 120 118 114 111 105 97 95 107 111 161 184 182 212 196 244
227 228 215 243 236 243 247 237 233 245 233 226 238 194 172 155 139 131 126 122 121 124 118 112 124 134 126 131 125 120 117 115 108 106 110 122 149 187 207 192 187 211 209 225
245 244 247 252 250 267 269 218 217 220 232 228 176 155 150 133 134 127 121 118 116 116 117 113 114 118 121 128 124 117 115 116 118 124 151 172 171 196 205 207 208 207 207 217
259 259 256 260 255 251 249 244 247 130 188 138 135 151 140 139 137 130 121 121 119 114 109 103 108 113 121 123 123 121 122 128 139 153 174 188 199 194 207 223 189 189 198 163
239 212 243 258 257 242 219 122 276 81 33 118 136 157 130 140 141 137 131 128 115 113 113 115 117 122 127 132 132 130 129 132 144 157 177 180 187 269 284 224 239 215 198 173
241 238 235 312 262 324 125 132 124 130 153 140 128 130 128 138 127 123 125 123 126 124 124 125 127 127 127 119 117 126 136 153 133 126 149 166 170 167 222 321 7 333 295 271
336 352 223 200 252 202 78 59 89 76 348 116 124 120 105 112 118 118 125 125 122 126 127 129 121 114 110 101 96 95 107 120 130 143 181 185 195 153 130 146 234 320 342 298
305 29 98 125 65 29 83 72 60 93 117 62 75 108 121 122 119 118 119 120 124 127 124 115 111 106 105 107 112 120 128 139 153 145 133 133 134 118 100 34 8 321 305 286
96 35 44 56 57 46 34 31 115 125 95 85 87 92 103 110 116 121 124 130 130 122 117 108 106 122 110 115 129 130 145 139 132 116 101 106 98 68 24 305 249 245 254 262
65 62 62 60 47 48 23 350 22 34 76 94 109 109 104 103 103 105 103 103 102 98 103 117 136 139 136 146 156 163 154 153 151 131 126 129 106 186 237 258 247 249 259 260
76 64 66 77 71 56 51 34 44 55 52 96 94 101 104 113 116 114 110 108 109 114 149 170 162 148 129 128 142 158 146 152 149 157 158 172 206 220 251 256 274 283 288 283
50 49 51 52 66 86 81 78 72 68 61 78 82 86 98 105 115 122 128 132 138 149 191 149 138 141 152 169 155 143 140 140 128 134 169 200 221 235 240 258 272 270 277 280
61 47 55 57 42 48 67 38 80 84 98 96 80 87 101 109 129 140 158 169 180 175 150 160 157 161 165 160 145 148 152 149 146 158 178 210 230 240 255 260 267 271 272 273
68 52 55 63 64 69 79 74 72 67 52 66 135 148 142 130 122 124 107 122 166 137 137 142 149 162 159 160 158 153 142 145 145 171 195 215 241 249 253 263 264 267 275 279
56 57 42 41 59 60 48 56 55 57 63 78 66 94 135 141 142 99 313 189 150 143 150 166 166 162 152 153 149 137 139 150 163 183 200 220 238 252 258 267 273 276 279 288
42 47 46 44 57 64 63 72 84 83 93 100 121 137 151 176 173 176 201 172 156 158 157 166 140 147 146 136 143 139 157 171 177 200 221 220 240 248 252 268 275 284 288 293
46 37 27 14 44 66 72 82 82 77 88 98 102 183 186 147 197 215 141 142 142 138 135 145 148 150 136 132 133 150 189 214 225 219 217 249 246 247 250 261 280 287 290 292
54 52 45 44 45 33 28 26 83 87 81 112 98 133 219 254 166 199 143 144 140 127 124 141 148 145 135 153 173 197 210 202 217 232 237 234 243 260 259 261 273 289 296 299
62 48 65 56 49 31 27 28 32 20 9 55 60 56 46 19 71 108 135 150 147 137 147 148 152 143 164 167 176 208 216 220 230 239 236 249 256 259 259 275 282 289 299 303
76 62 53 57 45 36 26 32 27 16 17 4 329 280 127 45 58 109 125 126 133 143 150 155 154 162 174 176 207 215 217 225 229 231 224 236 272 289 273 273 284 295 303 315